SCP
-0 0 -0 0 -0 -0 -0 -0 -0 -0 -0 -0 -0 -0 0 0 0 0 0 -0 0 0 0 0 0 0 -0 0 0 -0 -0 -0 -0 -0 -0 -0 -0 -0 -0 -0 -0 -0 -0
0 0 -0 -0 -0 -0 -0 -0 -0 -0 -0 -0 -0 0 0 -0 -0 0 -0 0 0 0 -0 0 0 0 0 0 0 -0 -0 -0 -0 -0 0 -0 -0 -0 -0 -0 -0 -0 -0
-0 0 0 -0 -0 -0 -0 -0 -0 -0 -0 -0 -0 -0 -0 -0 -0 -0 -0 -0 0 0 0 -0 0 0 0 -0 0 0 0 0 0 0 0 -0 -0 -0 -0 -0 -0 -0 -0
0 0 0 0 -0 -0 -0 0 0 0 0 0 0 0 -0 0 0 -0 -0 -0 -0 0 0 0 0 0 -0 0 0 0 0 0 -0 0 0 0 0 -0 -0 -0 -0 -0 -0
-0 -0 0 -0 0 0 0 -0 -0 0 0 0 0 0 -0 -0 0 0 -0 -0 -0 -0 -0 0 0 0 0 0 0 0 0 -0 -0 -0 0 0 0 0 -0 -0 0 -0 -0
0 0 -0 -0 -0 0 0 -0 -0 0 -0 0 0 -0 -0 -0 0 0 0 0 -0 -0 0 -0 0 0 0 0 0 0 0 -0 -0 -0 0 0 0 0 0 -0 -0 0 0
-0 0 0 0 0 0 -0 -0 -0 -0 -0 0 0 0 0 -0 0 0 0 0 0 0 -0 0 0 -0 -0 0 0 -0 0 0 -0 -0 -0 -0 0 0 0 0 -0 -0 0
0 0 0 0 0 0 0 -0 -0 -0 0 0 0 0 -0 0 0 0 0 0 0 0 0 -0 0 -0 -0 -0 -0 0 -0 0 0 -0 -0 0 0 0 0 0 0 -0 -0
0 0 0 0 0 0 0 0 -0 -0 0 0 0 0 0 0 0 0 0 0 0 0 0 -0 -0 -0 -0 0 0 -0 0 0 0 -0 -0 -0 0 0 0 0 -0 0 -0
0 0 0 0 0 0 0 0 0 0 0 0 0 0 -0 -0 0 0 0 0 0 0 0 0 0 0 0 0 -0 0 0 0 -0 -0 -0 -0 -0 -0 0 0 -0 0 0
0 0 0 0 0 0 0 0 0 0 0 0 0 0 -0 0 0 0 0 0 0 0 0 0 0 0 -0 -0 -0 -0 -0 0 0 -0 -0 0 -0 -0 -0 -0 -0 -0 -0
0 0 0 0 0 0 0 0 0 0 0 0 0 0 0 0 0 0 0 0 0 0 0 0 -0 0 -0 -0 -0 -0 -0 0 0 -0 -0 -0 0 -0 -0 -0 -0 -0 -0
0 0 0 0 0 0 0 0 0 0 0 0 0 0 0 0 0 0 0 0 0 0 0 0 0 0 0 0 -0 -0 -0 -0 0 0 -0 -0 -0 0 -0 -0 -0 -0 -0
0 0 0 0 0 0 0 0 0 0 0 0 0 0 0 0 0 0 0 0 0 0 -0 0 0 0 0 -0 -0 -0 -0 -0 -0 0 0 -0 -0 -0 0 0 0 -0 -0
0 0 0 0 0 0 0 0 0 0 0 0 0 0 0 0 0 0 0 0 0 0 0 0 0 0 0 0 0 0 -0 -0 -0 -0 0 0 -0 -0 -0 -0 -0 -0 0
0 0 0 0 0 0 0 0 0 0 0 0 0 0 0 0 0 0 0 0 0 0 0 0 0 0 0 0 0 0 0 0 -0 -0 -0 0 0 0 -0 -0 -0 -0 -0
0 0 0 0 0 0 0 0 0 0 0 0 0 0 0 0 0 0 0 0 0 0 0 0 0 0 0 0 0 0 0 0 0 -0 0 -0 -0 -0 0 0 -0 -0 -0
0 0 0 0 0 0 0 0 0 0 0 0 0 0 0 0 -0 0 0 -0 0 -0 0 0 0 0 0 0 0 0 0 0 0 0 0 -0 0 0 0 0 -0 -0 -0
0 0 0 0 0 0 0 0 0 0 0 0 0 0 -0 0 0 0 0 0 -0 -0 -0 0 0 0 0 0 -0 0 0 0 -0 0 0 -0 -0 -0 -0 -0 -0 0 0
-0 0 0 0 -0 -0 -0 -0 -0 0 0 0 0 0 0 0 0 0 0 0 0 0 -0 0 0 0 0 0 -0 -0 -0 0 -0 0 0 -0 -0 -0 -0 -0 0 0 0
-0 -0 -0 -0 -0 -0 -0 -0 -0 -0 0 0 -0 0 0 0 0 0 0 0 0 0 0 0 0 0 0 0 -0 -0 -0 -0 -0 -0 -0 0 0 -0 -0 -0 -0 -0 -0
-0 -0 0 0 0 0 0 0 0 0 0 0 0 0 0 0 0 0 0 0 0 0 0 0 0 0 0 0 0 0 -0 0 0 0 0 0 0 0 0 0 0 0 -0
0 -0 0 0 0 0 1 0 0 0 0 0 0 0 0 0 0 0 0 0 0 0 0 0 0 0 0 0 0 0 0 0 0 0 0 -0 0 0 0 0 0 0 0
-0 -0 0 -0 -0 -0 1 1 0 0 0 0 0 0 0 0 1 1 1 1 1 0 0 0 0 0 0 0 0 0 0 0 0 0 0 0 0 0 0 0 0 0 0
-0 0 0 0 0 -0 1 0 0 1 1 1 1 0 0 1 1 1 1 1 1 1 1 1 0 0 0 0 0 1 0 0 0 0 1 0 0 0 0 0 0 0 0
0 0 0 0 0 0 1 1 0 1 1 1 1 1 1 1 1 1 1 2 2 2 2 2 1 0 0 0 0 0 1 1 1 1 1 2 1 1 0 1 1 1 0
Wind_Speed_500mb
13 11 10 11 11 10 8 9 10 9 7 4 5 3 3 3 9 4 6 11 6 6 7 3 6 8 9 9 10 10 12 10 7 13 15 18 18 17 19 18 19 21 22
15 14 12 11 10 9 10 13 11 8 6 7 7 6 3 4 7 8 7 10 10 11 16 13 11 11 10 11 11 10 8 7 7 10 16 17 19 19 20 23 22 23 24
13 14 14 14 11 12 13 10 8 5 11 10 14 17 16 14 13 20 20 17 16 11 12 14 18 15 15 13 13 12 7 6 7 11 14 21 20 17 18 20 22 22 23
14 13 13 13 14 12 12 14 12 12 9 10 10 14 15 16 19 19 23 23 22 22 22 19 19 20 21 18 15 15 12 7 6 11 15 15 15 20 23 25 25 25 26
15 13 13 14 18 14 14 14 16 16 7 11 15 20 18 18 23 25 23 27 23 28 26 26 22 21 18 18 19 19 16 13 11 10 15 17 19 22 24 25 25 24 23
16 14 13 16 14 18 21 18 18 14 13 13 14 22 25 22 25 30 27 26 26 33 30 31 32 31 26 21 23 26 23 20 16 13 15 18 21 21 23 24 26 26 23
17 14 15 17 19 20 21 21 18 17 16 15 19 22 21 21 20 23 18 27 28 29 39 43 39 42 37 33 33 33 34 29 23 23 20 20 23 24 24 23 24 25 25
22 19 17 17 20 20 25 22 22 18 16 17 19 20 9 6 2 13 17 16 17 18 28 36 40 47 51 47 43 38 39 41 36 32 27 25 26 27 27 26 25 25 25
26 24 22 19 19 19 19 19 20 21 20 23 19 14 8 6 15 14 15 4 9 11 14 24 34 37 40 41 42 43 42 39 41 37 34 31 30 29 30 30 30 29 28
32 29 25 24 21 16 18 17 17 17 18 18 18 20 23 22 13 11 6 21 19 14 20 20 23 29 39 46 45 49 45 42 40 42 41 39 37 35 34 34 34 34 33
30 33 31 29 27 22 22 17 20 18 19 18 19 21 21 23 23 25 24 18 30 35 33 32 34 30 33 40 52 57 61 54 47 45 46 46 44 43 41 38 38 38 38
27 35 37 35 33 30 27 23 20 21 21 21 24 25 29 27 25 23 27 37 40 36 29 27 31 36 33 38 40 55 58 58 58 53 52 52 49 48 48 45 43 41 40
26 30 38 38 34 32 31 27 26 24 24 24 27 27 33 34 31 32 33 31 39 29 20 27 16 25 33 39 40 40 47 56 63 61 59 56 51 50 52 52 49 47 46
26 28 34 33 36 34 32 33 31 28 27 27 28 29 30 35 34 28 30 29 30 22 25 18 17 19 22 38 36 38 40 46 51 62 65 65 65 58 57 56 55 54 52
27 31 34 33 35 36 35 35 33 33 33 31 32 33 35 33 32 26 26 30 26 23 24 16 11 18 17 22 30 32 37 36 48 51 60 65 62 64 62 62 61 58 57
36 36 42 39 39 41 40 40 36 35 38 31 29 33 35 34 32 28 27 27 26 25 26 18 21 17 17 10 14 26 28 32 36 43 47 58 55 58 62 64 66 67 66
41 39 41 45 45 44 41 42 42 37 41 35 34 37 34 34 34 30 28 29 25 24 27 18 13 12 11 6 3 11 18 18 21 34 41 46 58 67 70 71 69 69 68
43 43 44 50 50 49 46 47 48 44 46 41 36 39 33 31 34 32 30 29 24 23 24 20 14 12 11 8 9 12 18 11 20 19 32 43 47 52 59 65 68 69 69
42 39 43 46 54 55 53 52 53 51 52 50 40 40 39 33 32 27 29 28 22 20 20 19 15 19 13 12 11 8 8 11 11 18 23 36 42 37 49 54 57 64 68
40 42 41 43 46 46 53 52 49 49 53 49 44 40 37 34 29 29 27 24 21 23 23 20 18 19 15 16 17 15 12 14 10 14 22 26 25 32 39 46 51 54 56
44 43 42 41 41 42 40 44 46 46 43 41 38 37 35 33 32 27 24 23 21 21 23 20 21 21 15 17 18 17 15 18 16 22 17 22 23 20 24 30 38 42 47
43 41 39 39 40 38 37 32 32 34 33 37 37 37 36 39 38 32 29 26 25 21 24 24 20 22 22 23 21 22 21 21 17 17 17 14 18 20 23 26 33 33 32
41 41 40 40 41 39 38 32 34 36 34 35 34 34 33 30 30 26 26 28 29 29 31 28 28 26 26 26 28 30 27 25 21 20 22 20 22 24 24 27 28 28 30
68 26 19 22 39 42 40 35 39 40 39 36 34 34 33 31 34 31 29 28 30 27 28 33 32 29 30 30 29 29 30 32 27 27 29 27 22 26 23 23 37 31 32
37 21 23 30 32 36 31 36 43 52 50 46 37 38 38 37 42 38 34 33 30 29 29 28 26 36 36 35 30 27 26 27 32 29 29 31 24 30 26 26 30 37 35
26 20 20 24 29 31 31 32 39 45 45 46 45 45 48 45 49 46 45 42 40 36 34 35 31 36 37 37 38 42 36 36 30 28 24 38 28 27 25 24 23 31 26
Wind_Direction_500mb
163 151 197 133 142 148 156 144 168 157 147 150 139 201 239 201 182 174 191 258 208 191 209 195 206 185 163 147 138 123 137 145 156 153 132 136 147 149 151 149 147 152 152
171 171 178 179 177 167 177 182 154 174 192 240 251 251 314 315 233 229 228 263 249 204 223 220 209 223 200 172 156 144 137 152 136 166 164 152 148 144 148 151 147 141 144
193 176 180 185 194 195 185 190 191 212 280 250 245 239 261 264 249 245 247 237 236 234 230 231 228 224 223 213 179 170 157 156 142 157 173 169 172 173 168 159 158 155 152
181 184 192 191 205 204 205 211 221 257 275 232 233 244 256 254 244 252 253 251 246 236 229 225 235 224 232 223 215 197 199 185 163 164 159 173 170 166 163 157 153 151 149
196 193 193 204 207 213 226 225 226 256 256 242 253 270 282 267 265 263 253 251 249 251 239 229 217 216 224 230 229 226 207 206 202 177 177 171 168 167 166 162 158 157 156
212 215 229 215 216 217 221 230 242 249 259 260 280 282 294 294 278 273 268 265 247 240 239 235 230 223 219 218 224 230 226 218 215 206 201 186 179 177 178 175 170 167 170
215 225 225 242 239 242 250 258 268 260 257 271 290 309 290 277 285 271 278 272 260 258 249 240 233 230 239 239 227 225 224 225 226 223 214 204 198 188 188 189 186 183 180
229 232 235 239 249 240 254 258 262 265 263 278 299 314 332 297 321 309 284 284 271 277 249 255 241 241 243 245 232 225 225 221 227 224 220 219 210 204 198 199 201 199 200
238 240 242 232 244 256 264 263 258 256 264 273 289 279 297 267 317 309 323 259 321 316 275 263 253 251 238 235 220 219 225 222 225 226 223 222 221 216 212 208 210 212 212
243 241 243 247 250 245 246 258 257 255 260 265 277 275 278 269 293 307 283 298 318 312 299 293 266 251 239 237 233 215 217 222 223 227 225 224 226 223 220 218 218 219 220
252 243 244 246 252 256 260 254 246 257 264 264 259 276 272 271 268 273 292 286 303 306 295 276 271 267 251 244 232 225 220 226 233 229 228 227 227 228 227 224 224 224 227
256 249 246 250 251 253 257 263 268 260 258 257 265 263 271 272 273 272 279 291 306 313 309 299 268 259 252 242 236 235 230 230 230 232 231 229 227 228 231 231 230 230 230
254 251 257 255 254 257 254 260 262 264 266 262 260 265 277 277 277 283 280 286 300 305 299 310 302 259 246 241 240 237 232 232 230 234 230 229 228 231 231 234 236 238 238
248 254 256 256 258 254 257 259 260 259 255 263 264 268 276 277 282 284 282 289 299 294 295 291 308 290 253 245 240 234 232 232 229 231 231 232 235 237 235 234 235 238 242
248 252 253 251 254 253 253 254 258 256 260 263 265 270 275 274 275 270 288 294 285 285 301 311 302 322 292 255 240 237 234 237 234 237 233 232 235 234 235 237 238 239 244
258 259 259 257 250 253 250 254 253 258 262 265 263 266 269 276 278 268 284 287 278 269 273 297 307 307 321 273 243 233 244 252 246 236 235 229 233 232 236 241 240 244 250
257 260 257 255 252 253 252 252 253 251 258 267 268 274 276 279 270 270 272 278 273 260 261 275 268 265 330 231 253 244 251 266 246 236 238 238 236 238 240 242 246 250 253
253 253 257 255 253 252 251 252 255 253 263 266 261 264 268 269 279 271 279 275 268 271 260 264 257 244 250 242 255 278 273 280 274 277 244 242 242 242 243 244 244 247 247
254 249 252 254 251 253 251 250 252 255 257 262 261 265 270 272 262 260 266 267 267 262 260 253 244 243 225 234 254 236 279 270 269 280 272 258 252 249 246 247 250 251 252
250 253 251 251 253 252 249 247 248 253 259 260 262 262 265 264 260 263 265 262 252 251 251 252 255 256 243 234 227 233 254 252 254 298 294 285 269 257 249 248 247 247 249
257 253 246 247 250 249 245 246 246 250 256 260 258 256 263 261 264 260 259 265 258 255 250 258 258 266 260 232 243 257 246 248 273 275 254 263 278 280 278 261 259 257 260
245 240 241 243 246 245 247 253 248 245 251 256 252 251 251 258 256 248 254 261 259 258 250 253 250 246 244 239 245 242 256 258 268 263 262 233 255 247 245 253 257 267 265
251 242 243 244 246 248 249 255 260 252 247 248 244 242 245 249 252 243 241 246 251 259 259 254 245 244 241 238 233 245 234 247 251 256 261 253 250 255 252 255 257 260 265
266 249 255 270 266 257 254 249 258 259 257 248 242 242 239 226 231 226 223 235 238 243 249 248 247 249 257 245 250 247 254 256 256 262 264 259 255 257 260 262 267 265 262
267 265 260 258 265 266 264 250 251 255 254 253 243 236 232 229 226 228 220 218 224 229 252 263 246 236 241 249 244 251 249 248 255 254 258 261 271 271 261 264 267 267 264
276 288 276 276 273 280 271 251 249 256 245 243 242 237 237 225 227 229 229 220 218 218 213 232 239 241 243 248 247 250 253 254 255 260 253 258 262 267 271 266 241 270 263
Wind_Speed_850mb
13 11 10 11 11 10 8 9 10 9 7 4 5 3 3 3 9 4 6 11 6 6 7 3 6 8 9 9 10 10 12 10 7 13 15 18 18 17 19 18 19 21 22
15 14 12 11 10 9 10 13 11 8 6 7 7 6 3 4 7 8 7 10 10 11 16 13 11 11 10 11 11 10 8 7 7 10 16 17 19 19 20 23 22 23 24
13 14 14 14 11 12 13 10 8 5 11 10 14 17 16 14 13 20 20 17 16 11 12 14 18 15 15 13 13 12 7 6 7 11 14 21 20 17 18 20 22 22 23
14 13 13 13 14 12 12 14 12 12 9 10 10 14 15 16 19 19 23 23 22 22 22 19 19 20 21 18 15 15 12 7 6 11 15 15 15 20 23 25 25 25 26
15 13 13 14 18 14 14 14 16 16 7 11 15 20 18 18 23 25 23 27 23 28 26 26 22 21 18 18 19 19 16 13 11 10 15 17 19 22 24 25 25 24 23
16 14 13 16 14 18 21 18 18 14 13 13 14 22 25 22 25 30 27 26 26 33 30 31 32 31 26 21 23 26 23 20 16 13 15 18 21 21 23 24 26 26 23
17 14 15 17 19 20 21 21 18 17 16 15 19 22 21 21 20 23 18 27 28 29 39 43 39 42 37 33 33 33 34 29 23 23 20 20 23 24 24 23 24 25 25
22 19 17 17 20 20 25 22 22 18 16 17 19 20 9 6 2 13 17 16 17 18 28 36 40 47 51 47 43 38 39 41 36 32 27 25 26 27 27 26 25 25 25
26 24 22 19 19 19 19 19 20 21 20 23 19 14 8 6 15 14 15 4 9 11 14 24 34 37 40 41 42 43 42 39 41 37 34 31 30 29 30 30 30 29 28
32 29 25 24 21 16 18 17 17 17 18 18 18 20 23 22 13 11 6 21 19 14 20 20 23 29 39 46 45 49 45 42 40 42 41 39 37 35 34 34 34 34 33
30 33 31 29 27 22 22 17 20 18 19 18 19 21 21 23 23 25 24 18 30 35 33 32 34 30 33 40 52 57 61 54 47 45 46 46 44 43 41 38 38 38 38
27 35 37 35 33 30 27 23 20 21 21 21 24 25 29 27 25 23 27 37 40 36 29 27 31 36 33 38 40 55 58 58 58 53 52 52 49 48 48 45 43 41 40
26 30 38 38 34 32 31 27 26 24 24 24 27 27 33 34 31 32 33 31 39 29 20 27 16 25 33 39 40 40 47 56 63 61 59 56 51 50 52 52 49 47 46
26 28 34 33 36 34 32 33 31 28 27 27 28 29 30 35 34 28 30 29 30 22 25 18 17 19 22 38 36 38 40 46 51 62 65 65 65 58 57 56 55 54 52
27 31 34 33 35 36 35 35 33 33 33 31 32 33 35 33 32 26 26 30 26 23 24 16 11 18 17 22 30 32 37 36 48 51 60 65 62 64 62 62 61 58 57
36 36 42 39 39 41 40 40 36 35 38 31 29 33 35 34 32 28 27 27 26 25 26 18 21 17 17 10 14 26 28 32 36 43 47 58 55 58 62 64 66 67 66
41 39 41 45 45 44 41 42 42 37 41 35 34 37 34 34 34 30 28 29 25 24 27 18 13 12 11 6 3 11 18 18 21 34 41 46 58 67 70 71 69 69 68
43 43 44 50 50 49 46 47 48 44 46 41 36 39 33 31 34 32 30 29 24 23 24 20 14 12 11 8 9 12 18 11 20 19 32 43 47 52 59 65 68 69 69
42 39 43 46 54 55 53 52 53 51 52 50 40 40 39 33 32 27 29 28 22 20 20 19 15 19 13 12 11 8 8 11 11 18 23 36 42 37 49 54 57 64 68
40 42 41 43 46 46 53 52 49 49 53 49 44 40 37 34 29 29 27 24 21 23 23 20 18 19 15 16 17 15 12 14 10 14 22 26 25 32 39 46 51 54 56
44 43 42 41 41 42 40 44 46 46 43 41 38 37 35 33 32 27 24 23 21 21 23 20 21 21 15 17 18 17 15 18 16 22 17 22 23 20 24 30 38 42 47
43 41 39 39 40 38 37 32 32 34 33 37 37 37 36 39 38 32 29 26 25 21 24 24 20 22 22 23 21 22 21 21 17 17 17 14 18 20 23 26 33 33 32
41 41 40 40 41 39 38 32 34 36 34 35 34 34 33 30 30 26 26 28 29 29 31 28 28 26 26 26 28 30 27 25 21 20 22 20 22 24 24 27 28 28 30
68 26 19 22 39 42 40 35 39 40 39 36 34 34 33 31 34 31 29 28 30 27 28 33 32 29 30 30 29 29 30 32 27 27 29 27 22 26 23 23 37 31 32
37 21 23 30 32 36 31 36 43 52 50 46 37 38 38 37 42 38 34 33 30 29 29 28 26 36 36 35 30 27 26 27 32 29 29 31 24 30 26 26 30 37 35
26 20 20 24 29 31 31 32 39 45 45 46 45 45 48 45 49 46 45 42 40 36 34 35 31 36 37 37 38 42 36 36 30 28 24 38 28 27 25 24 23 31 26
Wind_Direction_850mb
163 151 197 133 142 148 156 144 168 157 147 150 139 201 239 201 182 174 191 258 208 191 209 195 206 185 163 147 138 123 137 145 156 153 132 136 147 149 151 149 147 152 152
171 171 178 179 177 167 177 182 154 174 192 240 251 251 314 315 233 229 228 263 249 204 223 220 209 223 200 172 156 144 137 152 136 166 164 152 148 144 148 151 147 141 144
193 176 180 185 194 195 185 190 191 212 280 250 245 239 261 264 249 245 247 237 236 234 230 231 228 224 223 213 179 170 157 156 142 157 173 169 172 173 168 159 158 155 152
181 184 192 191 205 204 205 211 221 257 275 232 233 244 256 254 244 252 253 251 246 236 229 225 235 224 232 223 215 197 199 185 163 164 159 173 170 166 163 157 153 151 149
196 193 193 204 207 213 226 225 226 256 256 242 253 270 282 267 265 263 253 251 249 251 239 229 217 216 224 230 229 226 207 206 202 177 177 171 168 167 166 162 158 157 156
212 215 229 215 216 217 221 230 242 249 259 260 280 282 294 294 278 273 268 265 247 240 239 235 230 223 219 218 224 230 226 218 215 206 201 186 179 177 178 175 170 167 170
215 225 225 242 239 242 250 258 268 260 257 271 290 309 290 277 285 271 278 272 260 258 249 240 233 230 239 239 227 225 224 225 226 223 214 204 198 188 188 189 186 183 180
229 232 235 239 249 240 254 258 262 265 263 278 299 314 332 297 321 309 284 284 271 277 249 255 241 241 243 245 232 225 225 221 227 224 220 219 210 204 198 199 201 199 200
238 240 242 232 244 256 264 263 258 256 264 273 289 279 297 267 317 309 323 259 321 316 275 263 253 251 238 235 220 219 225 222 225 226 223 222 221 216 212 208 210 212 212
243 241 243 247 250 245 246 258 257 255 260 265 277 275 278 269 293 307 283 298 318 312 299 293 266 251 239 237 233 215 217 222 223 227 225 224 226 223 220 218 218 219 220
252 243 244 246 252 256 260 254 246 257 264 264 259 276 272 271 268 273 292 286 303 306 295 276 271 267 251 244 232 225 220 226 233 229 228 227 227 228 227 224 224 224 227
256 249 246 250 251 253 257 263 268 260 258 257 265 263 271 272 273 272 279 291 306 313 309 299 268 259 252 242 236 235 230 230 230 232 231 229 227 228 231 231 230 230 230
254 251 257 255 254 257 254 260 262 264 266 262 260 265 277 277 277 283 280 286 300 305 299 310 302 259 246 241 240 237 232 232 230 234 230 229 228 231 231 234 236 238 238
248 254 256 256 258 254 257 259 260 259 255 263 264 268 276 277 282 284 282 289 299 294 295 291 308 290 253 245 240 234 232 232 229 231 231 232 235 237 235 234 235 238 242
248 252 253 251 254 253 253 254 258 256 260 263 265 270 275 274 275 270 288 294 285 285 301 311 302 322 292 255 240 237 234 237 234 237 233 232 235 234 235 237 238 239 244
258 259 259 257 250 253 250 254 253 258 262 265 263 266 269 276 278 268 284 287 278 269 273 297 307 307 321 273 243 233 244 252 246 236 235 229 233 232 236 241 240 244 250
257 260 257 255 252 253 252 252 253 251 258 267 268 274 276 279 270 270 272 278 273 260 261 275 268 265 330 231 253 244 251 266 246 236 238 238 236 238 240 242 246 250 253
253 253 257 255 253 252 251 252 255 253 263 266 261 264 268 269 279 271 279 275 268 271 260 264 257 244 250 242 255 278 273 280 274 277 244 242 242 242 243 244 244 247 247
254 249 252 254 251 253 251 250 252 255 257 262 261 265 270 272 262 260 266 267 267 262 260 253 244 243 225 234 254 236 279 270 269 280 272 258 252 249 246 247 250 251 252
250 253 251 251 253 252 249 247 248 253 259 260 262 262 265 264 260 263 265 262 252 251 251 252 255 256 243 234 227 233 254 252 254 298 294 285 269 257 249 248 247 247 249
257 253 246 247 250 249 245 246 246 250 256 260 258 256 263 261 264 260 259 265 258 255 250 258 258 266 260 232 243 257 246 248 273 275 254 263 278 280 278 261 259 257 260
245 240 241 243 246 245 247 253 248 245 251 256 252 251 251 258 256 248 254 261 259 258 250 253 250 246 244 239 245 242 256 258 268 263 262 233 255 247 245 253 257 267 265
251 242 243 244 246 248 249 255 260 252 247 248 244 242 245 249 252 243 241 246 251 259 259 254 245 244 241 238 233 245 234 247 251 256 261 253 250 255 252 255 257 260 265
266 249 255 270 266 257 254 249 258 259 257 248 242 242 239 226 231 226 223 235 238 243 249 248 247 249 257 245 250 247 254 256 256 262 264 259 255 257 260 262 267 265 262
267 265 260 258 265 266 264 250 251 255 254 253 243 236 232 229 226 228 220 218 224 229 252 263 246 236 241 249 244 251 249 248 255 254 258 261 271 271 261 264 267 267 264
276 288 276 276 273 280 271 251 249 256 245 243 242 237 237 225 227 229 229 220 218 218 213 232 239 241 243 248 247 250 253 254 255 260 253 258 262 267 271 266 241 270 263